Tracking 19795 objects as of 20-Jul-2019
HD Live streaming from Space Station
objects crossing your sky now

FENGYUN 1C DEB

Track FENGYUN 1C DEB now!
10-day predictions


NORAD ID: 37011
Int'l Code: 1999-025ECT
Perigee: 673.1 km
Apogee: 758.8 km
Inclination: 98.9 °
Period: 99.0 minutes
Semi major axis: 7086 km
RCS: 0.002 m2 (small)
Launch date: May 10, 1999
Source: People's Republic of China (PRC)
Launch site: Taiyaun Space Center, China (TSC)

Note: This is SATELLITE DEBRIS
aabbcc
Your satellite tracking list
Your tracking list is empty




NASA's NSSDC Master Catalog

Two Line Element Set (TLE):
1 37011U 99025ECT 19200.58106040 +.00001220 +00000-0 +28793-3 0  9990
2 37011 098.9172 071.2893 0060435 215.8938 143.8190 14.55174049372787
Source of the keplerian elements: AFSPC